FW7044 Weather Reports


Display with metric or nautical units.
time (UTC)temp
F
wind
direction
speed
MPH
gust
MPH
rain 1hr
in
rain 24hr
in
rain mn
in
humidity
%
barometer
mb
20260505130245 80 221 1.0 2.0 0.00 0.00 0.00 74 1016.8
20260505124731 79 113 5.0 9.0 0.00 0.00 0.00 76 1016.5
20260505124228 77 63 2.0 2.0 0.00 0.00 0.00 81 1016.6
20260505123723 78 357 0.0 1.0 0.00 0.00 0.00 82 1016.7
20260505123220 78 333 2.0 3.0 0.00 0.00 0.00 83 1016.8
20260505122716 75 330 0.0 0.0 0.00 0.00 0.00 88 1017.1
20260505122214 73 313 0.0 0.0 0.00 0.00 0.00 97 1017.1
20260505121710 72 303 1.0 1.0 0.00 0.00 0.00 99 1017.1
20260505121207 71 322 0.0 0.0 0.00 0.00 0.00 99 1017.1
20260505120703 71 339 0.0 0.0 0.00 0.00 0.00 99 1016.9
20260505120159 71 336 0.0 0.0 0.00 0.00 0.00 99 1016.7
20260505115652 71 337 0.0 0.0 0.00 0.00 0.00 99 1016.5
20260505115150 70 339 0.0 0.0 0.00 0.00 0.00 99 1016.7
20260505114642 69 342 0.0 0.0 0.00 0.00 0.00 99 1016.5
20260505114138 69 342 0.0 0.0 0.00 0.00 0.00 99 1016.4
20260505113635 67 336 0.0 0.0 0.00 0.00 0.00 99 1016.4
20260505113131 67 336 0.0 0.0 0.00 0.00 0.00 99 1016.3
20260505112627 66 336 0.0 0.0 0.00 0.00 0.00 99 1016.3
20260505112126 66 336 0.0 0.0 0.00 0.00 0.00 99 1016.1
20260505111620 66 336 0.0 0.0 0.00 0.00 0.00 99 1016.0
20260505111116 66 336 0.0 0.0 0.00 0.00 0.00 99 1016.1
20260505110612 65 336 0.0 0.0 0.00 0.00 0.00 99 1015.9
20260505110109 65 336 0.0 0.0 0.00 0.00 0.00 99 1015.8
20260505102045 65 336 0.0 0.0 0.00 0.00 0.00 99 1015.7
20260505101544 65 336 0.0 0.0 0.00 0.00 0.00 99 1015.6
20260505101039 65 336 0.0 0.0 0.00 0.00 0.00 99 1015.6
20260505100536 65 336 0.0 0.0 0.00 0.00 0.00 99 1015.5
20260505100033 65 336 0.0 0.0 0.00 0.00 0.00 99 1015.4
20260505095529 65 336 0.0 0.0 0.00 0.00 0.00 99 1015.2
20260505095026 65 336 0.0 0.0 0.00 0.00 0.00 99 1015.1
20260505094522 65 336 0.0 0.0 0.00 0.00 0.00 99 1015.4
20260505094018 65 336 0.0 0.0 0.00 0.00 0.00 99 1015.3
20260505093515 65 336 0.0 0.0 0.00 0.00 0.00 99 1015.0
20260505093013 65 336 0.0 0.0 0.00 0.00 0.00 99 1015.0
20260505092510 65 336 0.0 0.0 0.00 0.00 0.00 99 1015.1
20260505092008 65 336 0.0 0.0 0.00 0.00 0.00 99 1015.0
20260505091505 66 336 0.0 0.0 0.00 0.00 0.00 99 1015.2
20260505091003 65 336 0.0 0.0 0.00 0.00 0.00 99 1015.1
20260505090500 65 336 0.0 0.0 0.00 0.00 0.00 99 1014.9
20260505085958 65 336 0.0 0.0 0.00 0.00 0.00 99 1015.0
20260505085456 65 336 0.0 0.0 0.00 0.00 0.00 99 1015.0
20260505084954 65 336 0.0 0.0 0.00 0.00 0.00 99 1015.1
20260505084452 65 336 0.0 0.0 0.00 0.00 0.00 99 1014.8
20260505083949 65 336 0.0 0.0 0.00 0.00 0.00 99 1015.1
20260505083446 65 336 0.0 0.0 0.00 0.00 0.00 99 1015.1
20260505082943 66 336 0.0 0.0 0.00 0.00 0.00 99 1015.0
20260505082438 65 336 0.0 0.0 0.00 0.00 0.00 99 1014.8
20260505081936 66 336 0.0 0.0 0.00 0.00 0.00 99 1014.8
20260505081432 66 336 0.0 0.0 0.00 0.00 0.00 99 1015.0
20260505080929 66 336 0.0 0.0 0.00 0.00 0.00 99 1014.8
20260505080425 66 336 0.0 0.0 0.00 0.00 0.00 99 1015.0
20260505075920 66 336 0.0 0.0 0.00 0.00 0.00 99 1015.1
20260505075418 66 336 0.0 0.0 0.00 0.00 0.00 99 1015.0
20260505074915 66 336 0.0 0.0 0.00 0.00 0.00 99 1014.8
20260505074412 66 336 0.0 0.0 0.00 0.00 0.00 99 1014.9
20260505073909 66 334 0.0 0.0 0.00 0.00 0.00 99 1015.1
20260505073407 66 334 0.0 0.0 0.00 0.00 0.00 99 1015.2
20260505072904 66 334 0.0 0.0 0.00 0.00 0.00 99 1015.1
20260505072400 66 334 0.0 0.0 0.00 0.00 0.00 99 1015.3
20260505071856 66 334 0.0 0.0 0.00 0.00 0.00 99 1015.0
20260505071352 66 334 0.0 0.0 0.00 0.00 0.00 99 1015.3
20260505070851 66 334 0.0 0.0 0.00 0.00 0.00 99 1015.3
20260505070347 66 334 0.0 0.0 0.00 0.00 0.00 99 1015.4
20260505065842 66 334 0.0 0.0 0.00 0.00 0.00 99 1015.3
20260505065339 66 334 0.0 0.0 0.00 0.00 0.00 99 1015.4
20260505064836 67 334 0.0 0.0 0.00 0.00 0.00 99 1015.4
20260505064333 66 334 0.0 0.0 0.00 0.00 0.00 99 1015.6
20260505063832 67 334 0.0 0.0 0.00 0.00 0.00 99 1015.5
20260505063327 67 334 0.0 0.0 0.00 0.00 0.00 99 1015.5
20260505062824 67 334 0.0 0.0 0.00 0.00 0.00 99 1015.7
20260505062322 66 334 0.0 0.0 0.00 0.00 0.00 99 1015.8
20260505061818 67 334 0.0 0.0 0.00 0.00 0.00 99 1015.9
20260505061316 67 334 0.0 0.0 0.00 0.00 0.00 99 1015.5
20260505060814 67 334 0.0 0.0 0.00 0.00 0.00 99 1015.5
20260505060310 67 334 0.0 0.0 0.00 0.00 0.00 99 1015.6
20260505055806 67 334 0.0 0.0 0.00 0.00 0.00 99 1015.9
20260505055303 67 334 0.0 0.0 0.00 0.00 0.00 99 1016.2
20260505054800 67 334 0.0 0.0 0.00 0.00 0.00 99 1016.2
20260505054257 67 334 0.0 0.0 0.00 0.00 0.00 99 1016.2
20260505053755 67 334 0.0 0.0 0.00 0.00 0.00 99 1016.5
20260505053252 67 334 0.0 0.0 0.00 0.00 0.00 99 1016.5
20260505052749 67 334 0.0 0.0 0.00 0.00 0.00 99 1016.3
20260505052246 67 334 0.0 0.0 0.00 0.00 0.00 99 1016.2
20260505051742 67 334 0.0 0.0 0.00 0.00 0.00 99 1016.4
20260505051241 68 334 0.0 0.0 0.00 0.00 0.00 98 1016.2
20260505050738 67 334 0.0 0.0 0.00 0.00 0.00 98 1016.4
20260505050237 67 334 0.0 0.0 0.00 0.00 0.00 98 1016.2
20260505041706 68 333 0.0 0.0 0.00 0.00 0.00 97 1016.6
20260505041203 69 333 0.0 0.0 0.00 0.00 0.00 97 1016.7
20260505040700 69 333 0.0 0.0 0.00 0.00 0.00 97 1016.5
20260505040158 69 333 0.0 0.0 0.00 0.00 0.00 96 1016.8
20260505035654 69 333 0.0 0.0 0.00 0.00 0.00 96 1016.5
20260505035150 69 333 0.0 0.0 0.00 0.00 0.00 96 1016.7
20260505034647 69 333 0.0 0.0 0.00 0.00 0.00 96 1016.9
20260505034144 69 333 0.0 0.0 0.00 0.00 0.00 96 1016.7
20260505033640 70 333 0.0 0.0 0.00 0.00 0.00 95 1016.8
20260505033139 70 333 0.0 0.0 0.00 0.00 0.00 95 1016.7
20260505032636 70 333 0.0 0.0 0.00 0.00 0.00 95 1016.8
20260505032132 70 333 0.0 0.0 0.00 0.00 0.00 95 1016.8
20260505031630 70 333 0.0 0.0 0.00 0.00 0.00 94 1016.8
20260505031126 70 333 0.0 0.0 0.00 0.00 0.00 94 1016.8
20260505030623 70 334 0.0 0.0 0.00 0.00 0.00 94 1016.7
20260505030119 71 333 0.0 0.0 0.00 0.00 0.00 93 1016.9
20260505025615 71 332 0.0 0.0 0.00 0.00 0.00 93 1016.9
20260505025114 71 333 0.0 0.0 0.00 0.00 0.00 93 1016.7
20260505024611 71 332 0.0 0.0 0.00 0.00 0.00 92 1016.7
20260505024108 71 332 0.0 0.0 0.00 0.00 0.00 92 1016.9
20260505023605 71 332 0.0 0.0 0.00 0.00 0.00 92 1016.8
20260505023102 71 332 0.0 0.0 0.00 0.00 0.00 92 1016.8
20260505022600 72 332 0.0 0.0 0.00 0.00 0.00 92 1016.9
20260505022057 72 332 0.0 0.0 0.00 0.00 0.00 91 1016.9
20260505021553 72 332 0.0 0.0 0.00 0.00 0.00 90 1017.0
20260505021050 72 333 0.0 0.0 0.00 0.00 0.00 90 1016.8
20260505020550 73 331 0.0 0.0 0.00 0.00 0.00 90 1016.6
20260505020048 73 331 0.0 0.0 0.00 0.00 0.00 89 1016.5
20260505015544 73 331 0.0 0.0 0.00 0.00 0.00 89 1016.7
20260505015041 73 355 0.0 0.0 0.00 0.00 0.00 89 1016.6
20260505014538 73 21 0.0 0.0 0.00 0.00 0.00 88 1016.3
20260505014035 73 357 0.0 0.0 0.00 0.00 0.00 88 1016.6
20260505013532 74 357 0.0 0.0 0.00 0.00 0.00 87 1016.7
20260505013030 74 353 0.0 0.0 0.00 0.00 0.00 87 1016.6
20260505012527 75 349 0.0 0.0 0.00 0.00 0.00 86 1016.8
20260505012024 75 81 0.0 0.0 0.00 0.00 0.00 85 1016.8
20260505011520 75 67 1.0 2.0 0.00 0.00 0.00 85 1016.6
20260505011017 75 80 1.0 1.0 0.00 0.00 0.00 84 1016.5
20260505010512 75 113 1.0 2.0 0.00 0.00 0.00 84 1016.6
20260505010009 75 21 0.0 0.0 0.00 0.00 0.00 84 1016.3
20260505005506 76 71 1.0 1.0 0.00 0.00 0.00 83 1016.4
20260505005004 76 70 2.0 3.0 0.00 0.00 0.00 83 1016.2
20260505004501 76 49 1.0 1.0 0.00 0.00 0.00 83 1016.4
20260505003957 76 126 1.0 2.0 0.00 0.00 0.00 82 1016.3
20260505003455 76 233 0.0 0.0 0.00 0.00 0.00 82 1016.3
20260505002950 76 82 1.0 2.0 0.00 0.00 0.00 82 1016.2
20260505002446 76 162 1.0 1.0 0.00 0.00 0.00 82 1016.1
20260505001945 76 72 0.0 1.0 0.00 0.00 0.00 82 1016.2
20260505001442 77 75 2.0 3.0 0.00 0.00 0.00 81 1016.1
20260505000939 77 203 4.0 5.0 0.00 0.00 0.00 81 1016.1
20260505000437 77 114 2.0 3.0 0.00 0.00 0.00 80 1016.0
20260504235934 77 148 3.0 5.0 0.00 0.00 0.00 79 1015.6
20260504235431 77 104 3.0 3.0 0.00 0.00 0.00 78 1015.6
20260504234927 77 343 3.0 3.0 0.00 0.00 0.00 77 1015.6
20260504234425 77 84 2.0 2.0 0.00 0.00 0.00 77 1015.7
20260504233921 77 97 2.0 2.0 0.00 0.00 0.00 77 1015.6
20260504233417 77 163 4.0 5.0 0.00 0.00 0.00 76 1015.7
20260504232914 77 30 1.0 2.0 0.00 0.00 0.00 75 1015.5
20260504232411 77 163 2.0 3.0 0.00 0.00 0.00 76 1015.5
20260504231908 78 115 3.0 3.0 0.00 0.00 0.00 75 1015.6
20260504231404 78 337 1.0 1.0 0.00 0.00 0.00 75 1015.4
20260504230900 78 7 1.0 2.0 0.00 0.00 0.00 75 1015.6
20260504230358 78 224 1.0 1.0 0.00 0.00 0.00 74 1015.5
20260504225857 78 32 2.0 3.0 0.00 0.00 0.00 74 1015.7
20260504225353 78 34 5.0 9.0 0.00 0.00 0.00 73 1015.6
20260504224850 78 74 2.0 5.0 0.00 0.00 0.00 74 1015.7
20260504224347 78 166 6.0 9.0 0.00 0.00 0.00 73 1015.6
20260504223843 78 3 3.0 6.0 0.00 0.00 0.00 74 1015.5
20260504223339 78 129 3.0 8.0 0.00 0.00 0.00 74 1015.8
20260504222836 78 29 1.0 2.0 0.00 0.00 0.00 74 1015.7
20260504222333 79 318 1.0 1.0 0.00 0.00 0.00 73 1015.7
20260504221831 78 10 1.0 2.0 0.00 0.00 0.00 74 1015.6
20260504221327 78 64 7.0 9.0 0.00 0.00 0.00 73 1015.5
20260504220825 78 75 2.0 3.0 0.00 0.00 0.00 74 1015.7
20260504220321 79 34 3.0 8.0 0.00 0.00 0.00 73 1015.5
20260504215819 79 62 2.0 2.0 0.00 0.00 0.00 72 1015.4
20260504215315 79 309 3.0 3.0 0.00 0.00 0.00 71 1015.5
20260504214811 79 18 2.0 5.0 0.00 0.00 0.00 72 1015.6
20260504214308 79 96 9.0 11.0 0.00 0.00 0.00 72 1015.6
20260504213805 79 93 3.0 3.0 0.00 0.00 0.00 72 1015.8
20260504213301 79 120 3.0 5.0 0.00 0.00 0.00 72 1015.8
20260504212759 79 74 5.0 7.0 0.00 0.00 0.00 71 1015.7
20260504212254 80 333 5.0 7.0 0.00 0.00 0.00 71 1015.5
20260504211752 81 109 5.0 7.0 0.00 0.00 0.00 69 1015.7
20260504211248 82 257 2.0 3.0 0.00 0.00 0.00 68 1015.7
20260504210746 82 267 4.0 7.0 0.00 0.00 0.00 67 1015.6
20260504210243 80 148 3.0 5.0 0.00 0.00 0.00 69 1015.8
20260504205739 80 179 3.0 5.0 0.00 0.00 0.00 69 1015.8
20260504205238 80 147 4.0 6.0 0.00 0.00 0.00 70 1015.7
20260504204735 82 82 4.0 7.0 0.00 0.00 0.00 68 1016.0
20260504204233 82 97 8.0 13.0 0.00 0.00 0.00 69 1015.9
20260504203733 80 122 6.0 8.0 0.00 0.00 0.00 71 1015.9
20260504203229 79 172 5.0 8.0 0.00 0.00 0.00 71 1016.0
20260504202724 80 105 4.0 5.0 0.00 0.00 0.00 71 1016.1
20260504202221 80 120 5.0 6.0 0.00 0.00 0.00 72 1016.0
20260504201718 79 83 6.0 8.0 0.00 0.00 0.00 72 1016.0
20260504201215 79 150 4.0 5.0 0.00 0.00 0.00 72 1016.0
20260504200713 79 154 5.0 7.0 0.00 0.00 0.00 72 1016.2
20260504200209 79 95 6.0 8.0 0.00 0.00 0.00 72 1016.1
20260504195705 79 114 8.0 10.0 0.00 0.00 0.00 72 1016.2
20260504195201 80 70 3.0 5.0 0.00 0.00 0.00 71 1016.2
20260504194658 80 91 2.0 3.0 0.00 0.00 0.00 72 1016.4
20260504194153 80 151 3.0 5.0 0.00 0.00 0.00 71 1016.4
20260504193651 80 346 3.0 3.0 0.00 0.00 0.00 71 1016.3
20260504193148 81 99 5.0 9.0 0.00 0.00 0.00 70 1016.6
20260504192646 82 173 0.0 1.0 0.00 0.00 0.00 69 1016.5
20260504192144 80 55 2.0 2.0 0.00 0.00 0.00 71 1016.5
20260504191642 81 113 2.0 7.0 0.00 0.00 0.00 72 1016.5
20260504191138 82 97 6.0 8.0 0.00 0.00 0.00 70 1016.5
20260504190634 82 58 7.0 9.0 0.00 0.00 0.00 68 1016.4
20260504190131 81 2 5.0 7.0 0.00 0.00 0.00 71 1016.5
20260504185628 79 350 8.0 9.0 0.00 0.00 0.00 73 1016.8
20260504185125 78 359 2.0 3.0 0.00 0.00 0.00 75 1016.9
20260504184620 79 97 3.0 3.0 0.00 0.00 0.00 75 1017.0
20260504184115 80 88 8.0 15.0 0.00 0.00 0.00 73 1017.1
20260504183613 80 105 7.0 11.0 0.00 0.00 0.00 71 1017.2
20260504183111 80 63 4.0 5.0 0.00 0.00 0.00 71 1017.2
20260504182608 79 29 1.0 2.0 0.00 0.00 0.00 73 1017.2
20260504182105 80 118 3.0 5.0 0.00 0.00 0.00 73 1017.2
20260504181602 80 330 2.0 5.0 0.00 0.00 0.00 72 1017.3
20260504181100 81 11 2.0 3.0 0.00 0.00 0.00 71 1017.2
20260504180559 82 117 8.0 9.0 0.00 0.00 0.00 71 1017.3
20260504180057 80 72 3.0 3.0 0.00 0.00 0.00 72 1017.4
20260504175554 80 334 4.0 6.0 0.00 0.00 0.00 73 1017.4
20260504175051 81 50 7.0 11.0 0.00 0.00 0.00 72 1017.3
20260504174549 82 71 4.0 7.0 0.00 0.00 0.00 69 1017.4
20260504174045 80 121 2.0 2.0 0.00 0.00 0.00 72 1017.1
20260504173542 79 59 3.0 5.0 0.00 0.00 0.00 74 1017.5
20260504173040 80 358 1.0 2.0 0.00 0.00 0.00 73 1017.6
20260504172536 80 102 5.0 8.0 0.00 0.00 0.00 72 1017.6
20260504172032 80 62 2.0 3.0 0.00 0.00 0.00 72 1017.3
20260504171530 80 226 3.0 6.0 0.00 0.00 0.00 71 1017.6
20260504171026 80 17 3.0 5.0 0.00 0.00 0.00 70 1017.2
20260504170522 81 48 4.0 7.0 0.00 0.00 0.00 71 1017.6
20260504160442 81 92 4.0 5.0 0.00 0.00 0.00 70 1017.8
20260504150906 80 85 2.0 3.0 0.00 0.00 0.00 73 1018.0
20260504150403 79 344 4.0 7.0 0.00 0.00 0.00 73 1017.8
20260504141333 79 347 2.0 2.0 0.00 0.00 0.00 72 1017.3
20260504140829 80 20 2.0 2.0 0.00 0.00 0.00 72 1017.3
20260504140325 80 53 4.0 8.0 0.00 0.00 0.00 70 1017.3